This is the latest recevied weather packets stored in our database for station/object E20ZNR-1. If no packets are shown the sender has not sent any weather packets the latest 10 day(s).
| Time | Temp. | Humidity | Pressure | Rain* | Wind** | Luminosity | Snow |
|---|---|---|---|---|---|---|---|
| 1777553387 | 28.33° C | 81% | 1005 hPa | - | - | 0 W/m² | - |
| 1777552462 | 28.89° C | 80% | 1005 hPa | - | - | 0 W/m² | - |
| 1777551536 | 28.89° C | 76% | 1005 hPa | - | - | 0 W/m² | - |
| 1777550611 | 29.44° C | 73% | 1004 hPa | - | - | 0 W/m² | - |
| 1777549685 | 29.44° C | 75% | 1005 hPa | - | - | 0 W/m² | - |
| 1777548760 | 30° C | 72% | 1005 hPa | - | - | 0 W/m² | - |
| 1777547834 | 30.56° C | 67% | 1005 hPa | - | - | 0 W/m² | - |
| 1777546907 | 31.11° C | 71% | 1005 hPa | - | - | 0 W/m² | - |
| 1777545981 | 32.22° C | 77% | 1004 hPa | - | - | 0 W/m² | - |
| 1777545056 | 32.22° C | 73% | 1003 hPa | - | - | 0 W/m² | - |
| 1777544131 | 33.33° C | 73% | 1003 hPa | - | - | 0 W/m² | - |
| 1777543205 | 33.89° C | 71% | 1003 hPa | - | - | 0 W/m² | - |
| 1777542281 | 34.44° C | 72% | 1003 hPa | - | - | 0 W/m² | - |
| 1777541356 | 33.89° C | 77% | 1003 hPa | - | - | 0 W/m² | - |
| 1777540431 | 33.33° C | 75% | 1003 hPa | - | - | 0 W/m² | - |
| 1777539508 | 32.78° C | 73% | 1003 hPa | - | - | 0 W/m² | - |
| 1777538581 | 32.22° C | 78% | 1003 hPa | - | - | 0 W/m² | - |
| 1777537656 | 32.22° C | 79% | 1003 hPa | - | - | 0 W/m² | - |
| 1777536730 | 32.78° C | 73% | 1003 hPa | - | - | 0 W/m² | - |
| 1777535805 | 31.11° C | 77% | 1004 hPa | - | - | 0 W/m² | - |
| 1777534879 | 32.78° C | 68% | 1004 hPa | - | - | 0 W/m² | - |
| 1777533953 | 32.22° C | 54% | 1004 hPa | - | - | 0 W/m² | - |
| 1777533027 | 36.11° C | 61% | 1004 hPa | - | - | 0 W/m² | - |
| 1777532101 | 37.22° C | 54% | 1004 hPa | - | - | 0 W/m² | - |
| 1777531175 | 37.22° C | 52% | 1004 hPa | - | - | 0 W/m² | - |
* Rain since midnight (hover to see other rain measurements)
** Current wind speed in m/s (hover to see current wind gust speed)